TimePST,TemperatureF,Dew PointF,Humidity,Sea Level PressureIn,VisibilityMPH,Wind Direction,Wind SpeedMPH,Gust SpeedMPH,PrecipitationIn,Events,Conditions,WindDirDegrees,DateUTC
12:51 AM,52.0,34.0,50,30.10,10.0,Calm,Calm,-,N/A,,Clear,0,2013-01-19 08:51:00
1:51 AM,50.0,33.1,52,30.10,10.0,Calm,Calm,-,N/A,,Partly Cloudy,0,2013-01-19 09:51:00
2:51 AM,48.9,33.1,54,30.10,10.0,Calm,Calm,-,N/A,,Partly Cloudy,0,2013-01-19 10:51:00
3:51 AM,48.0,32.0,54,30.11,10.0,Calm,Calm,-,N/A,,Partly Cloudy,0,2013-01-19 11:51:00
4:51 AM,48.0,30.9,52,30.12,10.0,Calm,Calm,-,N/A,,Scattered Clouds,0,2013-01-19 12:51:00
5:51 AM,48.9,28.0,44,30.12,10.0,Calm,Calm,-,N/A,,Partly Cloudy,0,2013-01-19 13:51:00
6:51 AM,48.0,28.0,46,30.14,10.0,Calm,Calm,-,N/A,,Partly Cloudy,0,2013-01-19 14:51:00
7:51 AM,51.1,28.0,41,30.16,10.0,Calm,Calm,-,N/A,,Scattered Clouds,0,2013-01-19 15:51:00
8:51 AM,57.9,28.0,32,30.18,10.0,Calm,Calm,-,N/A,,Scattered Clouds,0,2013-01-19 16:51:00
9:51 AM,63.0,33.1,33,30.19,10.0,Calm,Calm,-,N/A,,Scattered Clouds,0,2013-01-19 17:51:00
10:51 AM,70.0,21.9,16,30.16,10.0,Calm,Calm,-,N/A,,Scattered Clouds,0,2013-01-19 18:51:00
11:51 AM,73.0,12.9,10,30.12,10.0,Calm,Calm,-,N/A,,Scattered Clouds,0,2013-01-19 19:51:00
12:51 PM,73.9,21.0,14,30.09,10.0,NNW,10.4,-,N/A,,Scattered Clouds,330,2013-01-19 20:51:00
1:51 PM,73.9,19.9,13,30.08,10.0,WNW,8.1,-,N/A,,Scattered Clouds,300,2013-01-19 21:51:00
2:51 PM,75.0,18.0,12,30.07,10.0,WNW,8.1,-,N/A,,Scattered Clouds,300,2013-01-19 22:51:00
3:51 PM,73.0,21.0,14,30.07,10.0,WNW,8.1,-,N/A,,Partly Cloudy,300,2013-01-19 23:51:00
4:51 PM,71.1,24.1,17,30.08,10.0,North,5.8,-,N/A,,Partly Cloudy,10,2013-01-20 00:51:00
5:51 PM,66.0,27.0,23,30.09,10.0,NW,4.6,-,N/A,,Partly Cloudy,320,2013-01-20 01:51:00
6:51 PM,64.9,21.9,19,30.11,10.0,North,3.5,-,N/A,,Partly Cloudy,10,2013-01-20 02:51:00
7:51 PM,60.1,39.9,47,30.12,10.0,South,4.6,-,N/A,,Partly Cloudy,180,2013-01-20 03:51:00
8:51 PM,59.0,41.0,51,30.13,10.0,Calm,Calm,-,N/A,,Partly Cloudy,0,2013-01-20 04:51:00
9:51 PM,57.0,34.0,42,30.14,10.0,Calm,Calm,-,N/A,,Partly Cloudy,0,2013-01-20 05:51:00
10:51 PM,55.9,30.9,39,30.14,10.0,Calm,Calm,-,N/A,,Partly Cloudy,0,2013-01-20 06:51:00
11:51 PM,54.0,34.0,47,30.13,10.0,Calm,Calm,-,N/A,,Partly Cloudy,0,2013-01-20 07:51:00